ZHANGHENG 1 (CSES)

Last updated on Thu Nov 21 2024 00:03:26 GMT+0000 (Coordinated Universal Time)

1 43194U 18015C 24325.60376784 .00021362 00000+0 96520-3 0 9991 2 43194 97.6276 111.0511 0003285 339.7417 20.3687 15.20973434377463
UTC large
Height (km)
Speed (km/s)
/
Latitude / Longitude
Inclination (degrees)
Orbital Period (minutes)
Azimuth
Elevation
Range (km)
Doppler Factor

Next 0 passes for location: London (51.5072 / 0.1276)

Sorry there are no passes over London.